Find Starlink 34368

NORAD ID: 64311 Int'l Des: 2025-123 Owner: SPXS Country: US Constellation: starlink operational
LEOCIRCULAR

当前视图

正在加载3D地球...

About Starlink 34368

Starlink 34368 (NORAD 64311) is a starlink constellation satellite (v2 mini) launched Jun 8, 2025 by SPXS of US. It operates in LEO, CIRCULAR orbit with a mass of 575.00 kg.

即将过境

Passes for default location (London). Set your location on the main map for personalized predictions.

高度历史

Loading altitude history...

两行轨道根数

1 64311U 25123W 26263.48124168 .00023367 00000-0 81415-3 0 9994
2 64311 70.0017 61.0314 0003109 271.0604 89.0215 15.29605067 70856
Epoch: Sep 20, 2026 • Age: 15 hours

当前状态

高度 483.4 km
远地点 / 近地点 N/A
速度 7.63 km/s
星下点 39.51°N, 172.05°W
发射日期 Jun 8, 2025
运行时间 1.2 years
类型 internet

技术详情

分类 Payload
质量 575.00 kg
干质量 530.00 kg
长度 0.30 m
跨度 29.00 m
形状 ? Box + pan
制造商 SPXS
平台类型 Starlink V2MO
阶段状态 In Orbit
所有者/国家 SPXS/US

Most Searched